TimeIST,TemperatureF,Dew PointF,Humidity,Sea Level PressureIn,VisibilityMPH,Wind Direction,Wind SpeedMPH,Gust SpeedMPH,PrecipitationIn,Events,Conditions,WindDirDegrees,DateUTC
12:00 AM,46.4,39.2,76,29.53,6.2,NNW,12.7,-,N/A,,Scattered Clouds,340,2013-05-14 23:00:00
12:30 AM,44.6,39.2,81,29.53,6.2,NNW,12.7,-,N/A,,Partly Cloudy,330,2013-05-14 23:30:00
1:00 AM,44,40,80,29.55,12,NNW,13.4,,,,Partly Cloudy,330,2013-05-15 00:00:00
1:00 AM,44.6,39.2,81,29.53,6.2,NNW,12.7,-,N/A,,Partly Cloudy,330,2013-05-15 00:00:00
1:30 AM,44.6,39.2,81,29.53,-9999.0,NNW,11.5,-,N/A,,Clear,330,2013-05-15 00:30:00
2:00 AM,42.8,39.2,87,29.53,-9999.0,NW,11.5,-,N/A,,Clear,310,2013-05-15 01:00:00
2:30 AM,42.8,39.2,87,29.53,6.2,WNW,10.4,-,N/A,,Partly Cloudy,300,2013-05-15 01:30:00
3:00 AM,42.8,39.2,87,29.56,6.2,WNW,9.2,-,N/A,,Partly Cloudy,300,2013-05-15 02:00:00
3:30 AM,42.8,39.2,87,29.53,6.2,WNW,8.1,-,N/A,,Partly Cloudy,300,2013-05-15 02:30:00
4:00 AM,42.8,39.2,87,29.56,6.2,WNW,12.7,-,N/A,,Partly Cloudy,300,2013-05-15 03:00:00
4:30 AM,42.8,37.4,81,29.56,6.2,NW,9.2,-,N/A,,Partly Cloudy,310,2013-05-15 03:30:00
5:00 AM,42.8,37.4,81,29.56,6.2,WNW,11.5,-,N/A,,Partly Cloudy,300,2013-05-15 04:00:00
5:30 AM,41.0,37.4,87,29.56,6.2,WNW,11.5,-,N/A,,Partly Cloudy,300,2013-05-15 04:30:00
6:00 AM,42.8,37.4,81,29.56,6.2,WNW,11.5,-,N/A,,Partly Cloudy,300,2013-05-15 05:00:00
6:30 AM,44.6,39.2,81,29.56,6.2,WNW,11.5,-,N/A,,Mostly Cloudy,300,2013-05-15 05:30:00
7:00 AM,45,40,78,29.59,11,NW,13.4,,,Rain,Light Rain Showers,320,2013-05-15 06:00:00
7:00 AM,44.6,41.0,87,29.56,6.2,NW,13.8,-,N/A,Rain,Light Rain Showers,320,2013-05-15 06:00:00
7:30 AM,44.6,41.0,87,29.59,6.2,NNW,13.8,-,N/A,,Mostly Cloudy,330,2013-05-15 06:30:00
8:00 AM,46.4,39.2,76,29.59,6.2,NW,15.0,-,N/A,,Mostly Cloudy,320,2013-05-15 07:00:00
8:30 AM,46.4,41.0,81,29.59,6.2,WNW,8.1,-,N/A,,Mostly Cloudy,300,2013-05-15 07:30:00
9:00 AM,48.2,39.2,71,29.62,6.2,NW,11.5,-,N/A,,Mostly Cloudy,320,2013-05-15 08:00:00
9:30 AM,46.4,41.0,81,29.62,6.2,NW,19.6,-,N/A,,Mostly Cloudy,320,2013-05-15 08:30:00
10:00 AM,48.2,39.2,71,29.62,6.2,NW,17.3,-,N/A,Rain,Light Rain Showers,310,2013-05-15 09:00:00
10:30 AM,48.2,39.2,71,29.62,6.2,NNW,17.3,-,N/A,,Mostly Cloudy,340,2013-05-15 09:30:00
11:00 AM,48.2,39.2,71,29.62,6.2,NW,15.0,-,N/A,,Scattered Clouds,320,2013-05-15 10:00:00
11:30 AM,48.2,39.2,71,29.62,6.2,NNW,19.6,-,N/A,,Partly Cloudy,330,2013-05-15 10:30:00
12:00 PM,44.6,41.0,87,29.62,6.2,WNW,13.8,-,N/A,,Scattered Clouds,300,2013-05-15 11:00:00
12:30 PM,50.0,39.2,66,29.59,6.2,NNW,21.9,-,N/A,,Scattered Clouds,330,2013-05-15 11:30:00
1:00 PM,51,40,55,29.62,12,NW,17.9,,,Rain,Light Rain Showers,310,2013-05-15 12:00:00
1:00 PM,50.0,39.2,66,29.62,6.2,NW,18.4,38.0,N/A,,Mostly Cloudy,310,2013-05-15 12:00:00
1:30 PM,51.8,39.2,62,29.59,6.2,NW,20.7,-,N/A,,Scattered Clouds,320,2013-05-15 12:30:00
2:00 PM,50.0,41.0,71,29.62,6.2,NNW,11.5,-,N/A,Rain,Light Rain Showers,330,2013-05-15 13:00:00
2:30 PM,46.4,41.0,81,29.62,6.2,NNW,17.3,-,N/A,Rain,Light Rain Showers,340,2013-05-15 13:30:00
3:00 PM,46.4,42.8,87,29.62,6.2,WNW,17.3,-,N/A,Rain,Light Rain Showers,300,2013-05-15 14:00:00
3:30 PM,48.2,41.0,76,29.62,5.6,NNW,12.7,-,N/A,Rain,Light Rain Showers,340,2013-05-15 14:30:00
4:00 PM,46.4,42.8,87,29.62,6.2,NNW,8.1,-,N/A,,Mostly Cloudy,330,2013-05-15 15:00:00
4:30 PM,48.2,39.2,71,29.62,6.2,North,11.5,-,N/A,,Mostly Cloudy,360,2013-05-15 15:30:00
5:00 PM,50.0,37.4,62,29.59,6.2,NW,10.4,-,N/A,,Mostly Cloudy,310,2013-05-15 16:00:00
5:30 PM,51.8,35.6,54,29.59,6.2,NNW,13.8,-,N/A,,Scattered Clouds,330,2013-05-15 16:30:00
6:00 PM,50.0,33.8,54,29.59,6.2,WNW,17.3,-,N/A,,Scattered Clouds,300,2013-05-15 17:00:00
6:30 PM,50.0,35.6,58,29.62,6.2,WNW,16.1,-,N/A,,Mostly Cloudy,300,2013-05-15 17:30:00
7:00 PM,48,37,56,29.62,19,WNW,15.7,,,,Partly Cloudy,290,2013-05-15 18:00:00
7:00 PM,48.2,37.4,66,29.59,6.2,WNW,16.1,-,N/A,,Mostly Cloudy,290,2013-05-15 18:00:00
7:30 PM,48.2,35.6,62,29.59,6.2,West,15.0,-,N/A,,Mostly Cloudy,280,2013-05-15 18:30:00
8:00 PM,48.2,37.4,66,29.59,6.2,WNW,15.0,-,N/A,,Mostly Cloudy,300,2013-05-15 19:00:00
8:30 PM,46.4,37.4,71,29.59,6.2,West,15.0,-,N/A,,Mostly Cloudy,280,2013-05-15 19:30:00
9:00 PM,46.4,37.4,71,29.59,6.2,WNW,12.7,-,N/A,,Mostly Cloudy,290,2013-05-15 20:00:00
9:30 PM,44.6,39.2,81,29.62,6.2,West,16.1,-,N/A,Rain,Light Rain Showers,280,2013-05-15 20:30:00
10:00 PM,44.6,37.4,76,29.59,6.2,West,6.9,-,N/A,,Mostly Cloudy,280,2013-05-15 21:00:00
10:30 PM,44.6,39.2,81,29.59,6.2,West,6.9,-,N/A,,Mostly Cloudy,260,2013-05-15 21:30:00
11:00 PM,44.6,39.2,81,29.59,6.2,West,8.1,-,N/A,,Mostly Cloudy,280,2013-05-15 22:00:00
11:30 PM,44.6,39.2,81,29.59,6.2,WSW,4.6,-,N/A,,Mostly Cloudy,250,2013-05-15 22:30:00